Other Surface Observations
Issued by NWS

Home | Current Version | Previous Version | Text Only | Print | Product List | Glossary On
Versions: 1 2 3 4 5 6 7 8 9 10 11 12 13 14 15 16 17 18 19 20 21 22 23 24 25 26 27 28 29 30 31 32 33 34 35 36 37 38 39 40 41 42 43 44 45 46 47 48 49 50
000
SXUS52 KTAE 010218
OSOTAE
OSOTAE
North Florida/South Alabama/Southwest Georgia Weather Roundup
National Weather Service Tallahassee Florida
1000 PM EDT FRI JUL 31 2015

Note: "fair" indicates few or no clouds below 12,000 feet with no
significant weather and/or obstructions to visibility.

!FLZ017-115-028-034-025-010300
...North Florida...

CITY           SKY/WX    TMP DP  RH WIND       PRES   REMARKS
TALLAHASSEE    MOCLDY    83  75  77 SW3       29.91R HX  90
APALACHICOLA   CLEAR     82  77  84 CALM      29.90S HX  90
PERRY          CLEAR     79  79 100 E5        29.93R
CROSS CITY       N/A     78  74  87 E5        29.94R
JACKSONVILLE   LGT RAIN  78  76  93 CALM      29.94S
$$

!FLZ112-006-005-002-011-010300
...Florida Panhandle...

CITY           SKY/WX    TMP DP  RH WIND       PRES   REMARKS
MARIANNA       CLOUDY    83  77  82 N5        29.91R HX  92
BONIFAY        MOCLDY    78  77  96 CALM      29.93R
PANAMA CITY NW FAIR      79  76  90 CALM      29.88F
TYNDALL AFB    PTCLDY    80  78  92 CALM      29.90S
TYND DRONE APT NOT AVBL
DE FUNIAK SPR  FAIR      75  75 100 CALM      29.92R
EGLIN AFB      MOCLDY    79  73  82 N5        29.88F
DESTIN         MOCLDY    82  76  81 N5        29.88F
HURLBURT       CLOUDY    78  74  87 N3        29.86F
CRESTVIEW      MOCLDY    78  76  93 CALM      29.90F
PENSACOLA      CLOUDY    76  73  91 N5        29.87F
$$

!ALZ063-066-010300
...South Alabama...

CITY           SKY/WX    TMP DP  RH WIND       PRES   REMARKS
DOTHAN         LGT RAIN  78  72  81 N3        29.96R
OZARK CAIRNS   CLOUDY    79  75  88 E5        29.91S
FT RUCKER HELI CLOUDY    78  73  84 E3        29.91R THUNDER
RUCKER HELI 3  MOCLDY    78  74  88 E6        29.93S
RUCKER HELI 2  FAIR      76  76 100 CALM      29.92R THUNDER
FLORALA APT    MOCLDY    79  75  87 NE17G23   29.94R
ANDALUSIA      PTCLDY    83  76  79 SE3       29.91R HX  91
TROY           MOCLDY    77  72  84 SW3       29.92R
EUFALA         FAIR      75  73  94 CALM      29.92R THUNDER
MOBILE         PTCLDY    84  66  54 N7        29.91R
$$

!GAZ120>161-010300
...Southwest and South Central Georgia...

CITY           SKY/WX    TMP DP  RH WIND       PRES   REMARKS
THOMASVILLE    MOCLDY    77  75  94 S6        29.94R
BAINBRIDGE     TSTM      75  73  94 N24G33    29.95R VSB 1/2
MOODY AFB      LGT RAIN  75  73  94 SE6       29.93S
VALDOSTA       LGT RAIN  76  74  93 S10       29.96R
MOULTRIE       CLOUDY    79  72  78 SE3       29.95R THUNDER
BLAKELY        CLOUDY    77  73  88 E3        29.92F THUNDER
ALBANY         LGT RAIN  76  74  93 SW8       29.94R
TIFTON         FAIR      75  74  98 CALM      29.93R
FITZGERALD     MOCLDY    78  77  96 SE3       29.96R
CORDELE        FAIR      77  76  97 CALM      29.96F
AMERICUS       FAIR      73  73 100 SW5       29.95R
HOMERVILLE     FAIR      77  77 100 CALM      29.94S
$$

!GMZ750-755-770-775-010300
...Coastal and Buoy Obs...

STATION/POSITION TIME  TEMP    WIND        PRES    VSBY  WAVE
                       AIR SEA DIR/SP/G                  HT/PER
                 (UTC) (F)     (DEG/KT/KT) (MB)    (MI)  (FT/S)
KEATON BEACH     0200   83     170/ 10/ 11 1013.2R
CEDAR KEY        0200   82     260/  8/ 10 1014.1R
C TOWER          0200   83     230/  9/ 10 1012.8R
APALACHICOLA BUO 0150   83 85  210/ 16/ 17 1013.1R         5/ 6
PANAMA CITY BUOY 0150   85 86  260/ 10/ 12 1012.6R         3/ 5
MOBILE BUOY      0150   85 89   10/  2/  4 1012.0F         1/ 3
ORANGE BCH AL BU 0150   82 86   10/ 10/ 12 1011.1F         1/ 3
$$



USA.gov is the U.S. government's official web portal to all federal, state and local government web resources and services.